Mumbai, India

3:00 PM IST on July 22, 2017 (GMT +0530)
Chhatrapati Shivaji International

Weather History for VABB - December, 2012

Change the Weather History Date:

Monday, December 10, 2012

  Actual Average Record
Temperature  
Mean Temperature 78 °F -  
Max Temperature 89 °F 87 °F 95 °F (2002)
Min Temperature 67 °F 67 °F 64 °F (2003)
Cooling Degree Days 13    
Growing Degree Days 28 (Base 50)    
Moisture  
Dew Point 69 °F    
Average Humidity 69    
Maximum Humidity 86    
Minimum Humidity 25    
Precipitation  
Precipitation 0.00 in - - ()
Sea Level Pressure  
Sea Level Pressure 29.85 in    
Wind  
Wind Speed 4 mph ()    
Max Wind Speed 13 mph    
Max Gust Speed 23 mph    
Visibility 1.8 miles    
Events      
Averages and records for this station are not official NWS values.
T = Trace of Precipitation, MM = Missing Value Source: Averaged Metar Reports

Daily Weather History Graph

Daily Weather History Graph

Search for Another Location

Airport or City:

Trip Planner

Search our weather history database for the weather conditions in past years. The results will help you decide how hot, cold, wet, or windy it might be!

Date:

Astronomy

Dec. 10, 2012 Rise Set
Actual Time 7:01 AM IST 6:01 PM IST
Civil Twilight 6:37 AM IST 6:25 PM IST
Nautical Twilight 6:10 AM IST 6:52 PM IST
Astronomical Twilight 5:43 AM IST 7:19 PM IST
Moon 3:31 AM IST (12/10) 3:15 PM IST (12/10)
Length of Visible Light 11h 48m
Length of Day
11h 00m
Waning Crescent, 14% of the Moon is Illuminated
Dec 10
Waning Crescent
Dec 13
New
Dec 20
First Quarter
Dec 28
Full
Jan 5
Last Quarter

Hourly Weather History & Observations

Time (IST) Temp. Heat Index Dew Point Humidity Pressure Visibility Wind Dir Wind Speed Gust Speed Precip Events Conditions
12:10 AM 78.8 °F - 66.2 °F 65% 29.86 in 1.6 mi NNW 4.6 mph - N/A   Smoke
12:40 AM 78.8 °F - 66.2 °F 65% 29.86 in 1.6 mi NNW 3.5 mph - N/A   Smoke
1:10 AM 78.8 °F - 64.4 °F 61% 29.86 in 1.6 mi NNE 3.5 mph - N/A   Smoke
1:40 AM 77.0 °F - 66.2 °F 69% 29.83 in 1.6 mi NNE 3.5 mph - N/A   Smoke
2:10 AM 77.0 °F - 68.0 °F 74% 29.83 in 1.6 mi Calm Calm - N/A   Smoke
2:30 AM 70 °F - 64 °F 76% 29.84 in 1 mi Calm Calm - -   Haze
2:40 AM 77.0 °F - 68.0 °F 74% 29.83 in 1.6 mi North 3.5 mph - N/A   Smoke
3:10 AM 77.0 °F - 69.8 °F 78% 29.83 in 1.6 mi NE 4.6 mph - N/A   Haze
3:40 AM 77.0 °F - 69.8 °F 78% 29.83 in 1.6 mi North 3.5 mph - N/A   Haze
4:10 AM 75.2 °F - 69.8 °F 83% 29.83 in 1.6 mi Calm Calm - N/A   Haze
4:40 AM 75.2 °F - 69.8 °F 83% 29.83 in 1.6 mi NNE 3.5 mph - N/A   Haze
5:10 AM 75.2 °F - 69.8 °F 83% 29.83 in 1.6 mi NE 3.5 mph - N/A   Haze
5:30 AM 70 °F - 66 °F 83% 29.84 in 1 mi Calm Calm - -   Haze
5:40 AM 75.2 °F - 69.8 °F 83% 29.83 in 1.6 mi ENE 3.5 mph - N/A   Haze
6:10 AM 75.2 °F - 69.8 °F 83% 29.86 in 1.6 mi ENE 4.6 mph - N/A   Haze
6:40 AM 75.2 °F - 69.8 °F 83% 29.86 in 1.4 mi NNE 3.5 mph - N/A   Haze
7:10 AM 75.2 °F - 69.8 °F 83% 29.86 in 1.4 mi NE 4.6 mph - N/A   Haze
7:40 AM 75.2 °F - 69.8 °F 83% 29.89 in 1.4 mi NNE 3.5 mph - N/A   Haze
8:30 AM 73 °F - 70 °F 86% 29.89 in 1 mi Calm Calm - -   Haze
8:40 AM 80.6 °F 83.2 °F 68.0 °F 65% 29.89 in 1.6 mi NE 4.6 mph - N/A   Smoke
9:10 AM 82.4 °F 84.6 °F 66.2 °F 58% 29.92 in 1.7 mi Calm Calm - N/A   Smoke
10:10 AM 84.2 °F 83.8 °F 59.0 °F 42% 29.92 in 2.2 mi ENE 4.6 mph - N/A   Smoke
10:40 AM 84.2 °F 83.0 °F 55.4 °F 37% 29.92 in 2.2 mi NNE 4.6 mph - N/A   Smoke
11:10 AM 86.0 °F 84.9 °F 57.2 °F 37% 29.89 in 2.2 mi West 6.9 mph - N/A   Smoke
11:30 AM 89 °F - 58 °F 25% 29.89 in 1 mi Calm Calm - -   Smoke
11:40 AM 87.8 °F 86.5 °F 57.2 °F 35% 29.89 in 2.2 mi WNW 9.2 mph - N/A   Smoke
12:10 PM 86.0 °F 88.2 °F 66.2 °F 51% 29.86 in 2.5 mi WNW 10.4 mph - N/A   Smoke
12:40 PM 84.2 °F 88.4 °F 69.8 °F 62% 29.86 in 2.5 mi West 11.5 mph - N/A   Smoke
1:10 PM 84.2 °F 88.4 °F 69.8 °F 62% 29.83 in 2.5 mi WNW 11.5 mph - N/A   Smoke
1:40 PM 84.2 °F 88.4 °F 69.8 °F 62% 29.83 in 2.5 mi WNW 11.5 mph - N/A   Smoke
2:10 PM 84.2 °F 88.4 °F 69.8 °F 62% 29.80 in 2.5 mi WNW 11.5 mph - N/A   Haze
2:30 PM 87 °F - 69 °F 47% 29.81 in 2 mi West 4.6 mph - -  
2:40 PM 84.2 °F 89.6 °F 71.6 °F 66% 29.80 in 2.5 mi West 12.7 mph - N/A   Haze
3:10 PM 84.2 °F 88.4 °F 69.8 °F 62% 29.80 in 2.5 mi WNW 11.5 mph - N/A   Haze
3:40 PM 84.2 °F 89.6 °F 71.6 °F 66% 29.80 in 2.5 mi WNW 8.1 mph 19.6 mph N/A   Haze
4:10 PM 82.4 °F 87.2 °F 71.6 °F 70% 29.80 in 2.5 mi WNW 11.5 mph 23.0 mph N/A   Haze
4:40 PM 82.4 °F 87.2 °F 71.6 °F 70% 29.80 in 2.5 mi WNW 8.1 mph - N/A   Haze
5:10 PM 82.4 °F 87.2 °F 71.6 °F 70% 29.80 in 2.5 mi WNW 9.2 mph - N/A   Haze
5:30 PM 82 °F - 72 °F 64% 29.81 in 1 mi West 4.6 mph - -   Smoke
5:40 PM 80.6 °F 84.6 °F 71.6 °F 74% 29.80 in 2.5 mi WNW 8.1 mph - N/A   Haze
6:10 PM 80.6 °F 84.6 °F 71.6 °F 74% 29.83 in 2.5 mi NW 8.1 mph - N/A   Haze
6:40 PM 78.8 °F - 71.6 °F 78% 29.83 in 1.9 mi NNW 6.9 mph - N/A   Haze
7:10 PM 78.8 °F - 71.6 °F 78% 29.83 in 1.9 mi NW 5.8 mph - N/A   Haze
7:40 PM 78.8 °F - 71.6 °F 78% 29.86 in 1.9 mi NNW 5.8 mph - N/A   Haze
8:10 PM 78.8 °F - 71.6 °F 78% 29.86 in 1.9 mi NW 5.8 mph - N/A   Mist
8:30 PM 78 °F - 71 °F 74% 29.86 in 1 mi West 4.6 mph - -   Haze
8:40 PM 78.8 °F - 71.6 °F 78% 29.86 in 1.9 mi Variable 4.6 mph - N/A   Mist
9:10 PM 80.6 °F 84.6 °F 71.6 °F 74% 29.89 in 1.9 mi NW 5.8 mph - N/A   Haze
9:40 PM 78.8 °F - 71.6 °F 78% 29.89 in 1.6 mi NNW 4.6 mph - N/A   Haze
10:10 PM 78.8 °F - 71.6 °F 78% 29.89 in 1.6 mi North 3.5 mph - N/A   Haze
10:40 PM 78.8 °F - 71.6 °F 78% 29.89 in 1.5 mi North 4.6 mph - N/A   Haze
11:10 PM 77.0 °F - 71.6 °F 83% 29.89 in 1.5 mi NNW 4.6 mph - N/A   Haze
11:30 PM 74 °F - 70 °F 84% 29.88 in 1 mi North 3.5 mph - -   Haze
11:40 PM 77.0 °F - 69.8 °F 78% 29.86 in 1.6 mi North 3.5 mph - N/A   Haze